DLH710 UKBB-EDDN

Flight info

Callsign DLH710
Flight time 1h 49m
Altitude 34000
Route K0876F380 SLV2Z SLV DCT PEVOT T708 DIBED/N0473F380 L984 PADKA DCT ETUDA DCT BEKVI DCT OKG N869 NIBIL Q244 PIVIR PIVIR1V
Aircraft B77W/H-SDE1E2E3FGHIJ2J3J4J5M1RWXY/LB1D1

Departure

Time 2026-05-07 16:19
Airport Boryspil International Airport (UKBB)

Arrival

Time 2026-05-07 18:08
Airport Nuremberg Airport (EDDN)
Time Latitude Longitude Altitude Speed Heading
2026-05-07 16:05 50.35472 30.89898 434 ft 0 kts 271°
2026-05-07 16:13 50.35471 30.89911 421 ft 3 kts 287°
2026-05-07 16:13 50.35461 30.89938 420 ft 3 kts 326°
2026-05-07 16:13 50.35443 30.89950 422 ft 3 kts 348°
2026-05-07 16:13 50.35434 30.89953 420 ft 0 kts 348°
2026-05-07 16:15 50.35441 30.89953 423 ft 4 kts
2026-05-07 16:16 50.35469 30.89996 420 ft 14 kts 62°
2026-05-07 16:16 50.35480 30.90185 430 ft 19 kts 72°
2026-05-07 16:16 50.35589 30.90283 426 ft 19 kts 10°
2026-05-07 16:16 50.35722 30.90291 429 ft 19 kts
2026-05-07 16:17 50.35855 30.90293 428 ft 19 kts
2026-05-07 16:17 50.35987 30.90313 424 ft 19 kts
2026-05-07 16:17 50.36077 30.90447 422 ft 19 kts 79°
2026-05-07 16:17 50.36032 30.90600 420 ft 5 kts 138°
2026-05-07 16:18 50.36002 30.90623 433 ft 0 kts 166°
2026-05-07 16:18 50.36001 30.90623 433 ft 1 kts 168°
2026-05-07 16:18 50.35941 30.90626 429 ft 19 kts 179°
2026-05-07 16:18 50.35438 30.90596 428 ft 136 kts 183°
2026-05-07 16:19 50.34145 30.90502 932 ft 201 kts 182°
2026-05-07 16:19 50.32850 30.90542 2900 ft 198 kts 184°
2026-05-07 16:19 50.31391 30.90377 3622 ft 225 kts 186°
2026-05-07 16:19 50.29725 30.90224 4362 ft 248 kts 185°
2026-05-07 16:20 50.27974 30.90089 5294 ft 255 kts 184°
2026-05-07 16:20 50.26219 30.89960 5876 ft 254 kts 185°
2026-05-07 16:20 50.24492 30.89401 5973 ft 259 kts 210°
2026-05-07 16:20 50.23232 30.87434 6068 ft 261 kts 240°
2026-05-07 16:21 50.22674 30.84753 6686 ft 262 kts 258°
2026-05-07 16:21 50.22526 30.81871 7766 ft 270 kts 265°
2026-05-07 16:21 50.22524 30.78960 8921 ft 273 kts 268°
2026-05-07 16:21 50.22556 30.75955 9940 ft 283 kts 270°
2026-05-07 16:22 50.22593 30.72814 10739 ft 298 kts 268°
2026-05-07 16:22 50.22627 30.69415 11101 ft 330 kts 268°
2026-05-07 16:22 50.22656 30.65673 11601 ft 352 kts 268°
2026-05-07 16:22 50.22683 30.61813 12737 ft 358 kts 269°
2026-05-07 16:23 50.22704 30.57907 13894 ft 363 kts 269°
2026-05-07 16:23 50.22720 30.53932 14922 ft 368 kts 268°
2026-05-07 16:23 50.22731 30.49903 15955 ft 374 kts 269°
2026-05-07 16:23 50.22740 30.45818 17036 ft 378 kts 268°
2026-05-07 16:24 50.22745 30.41680 18051 ft 384 kts 268°
2026-05-07 16:24 50.22749 30.37491 19015 ft 388 kts 269°
2026-05-07 16:24 50.22750 30.33234 19862 ft 394 kts 269°
2026-05-07 16:24 50.22750 30.28915 20737 ft 400 kts 269°
2026-05-07 16:25 50.22749 30.24542 21691 ft 403 kts 269°
2026-05-07 16:25 50.22746 30.20125 22559 ft 409 kts 269°
2026-05-07 16:25 50.22741 30.15663 23476 ft 413 kts 269°
2026-05-07 16:25 50.22734 30.11159 24246 ft 415 kts 269°
2026-05-07 16:26 50.22729 30.08358 24695 ft 419 kts 269°
2026-05-07 16:26 50.22720 30.03938 25298 ft 425 kts 269°
2026-05-07 16:26 50.22709 29.99608 26018 ft 427 kts 270°
2026-05-07 16:26 50.22697 29.94966 26809 ft 429 kts 270°
2026-05-07 16:27 50.22682 29.90270 27383 ft 435 kts 270°
2026-05-07 16:27 50.22665 29.85512 27944 ft 442 kts 270°
2026-05-07 16:27 50.22645 29.80675 28554 ft 447 kts 270°
2026-05-07 16:27 50.22624 29.75808 29257 ft 448 kts 270°
2026-05-07 16:28 50.22601 29.70933 29913 ft 452 kts 270°
2026-05-07 16:28 50.22575 29.66026 30526 ft 453 kts 270°
2026-05-07 16:28 50.22546 29.61156 31453 ft 444 kts 270°
2026-05-07 16:28 50.22516 29.56373 32297 ft 439 kts 270°
2026-05-07 16:29 50.22485 29.51609 32981 ft 438 kts 269°
2026-05-07 16:29 50.22452 29.46839 33559 ft 439 kts 269°
2026-05-07 16:29 50.22416 29.42068 33991 ft 439 kts 269°
2026-05-07 16:30 50.22341 29.32611 33966 ft 435 kts 269°
2026-05-07 16:30 50.22258 29.23061 33991 ft 448 kts 269°
2026-05-07 16:31 50.22162 29.13141 33983 ft 465 kts 269°
2026-05-07 16:31 50.22055 29.02907 33978 ft 478 kts 269°
2026-05-07 16:32 50.21941 28.92878 33970 ft 478 kts 269°
2026-05-07 16:32 50.21813 28.82454 33965 ft 485 kts 269°
2026-05-07 16:33 50.21674 28.71853 33958 ft 489 kts 269°
2026-05-07 16:33 50.21525 28.61210 33963 ft 491 kts 268°
2026-05-07 16:34 50.21366 28.50610 33948 ft 484 kts 268°
2026-05-07 16:34 50.21200 28.40140 33961 ft 484 kts 268°
2026-05-07 16:35 50.21023 28.29623 33966 ft 486 kts 268°
2026-05-07 16:35 50.20837 28.19062 33958 ft 487 kts 268°
2026-05-07 16:36 50.20640 28.08494 33952 ft 487 kts 268°
2026-05-07 16:36 50.20441 27.98273 33953 ft 486 kts 268°
2026-05-07 16:37 50.20227 27.87740 33955 ft 485 kts 268°
2026-05-07 16:37 50.20003 27.77224 33958 ft 484 kts 268°
2026-05-07 16:38 50.19772 27.66790 33954 ft 484 kts 268°
2026-05-07 16:38 50.19529 27.56282 33957 ft 484 kts 267°
2026-05-07 16:39 50.19278 27.45776 33952 ft 483 kts 267°
2026-05-07 16:39 50.19017 27.35302 33952 ft 483 kts 267°
2026-05-07 16:40 50.18747 27.24818 33957 ft 483 kts 267°
2026-05-07 16:40 50.18468 27.14334 33950 ft 483 kts 267°
2026-05-07 16:41 50.18181 27.03877 33955 ft 482 kts 266°
2026-05-07 16:41 50.17692 26.93777 33955 ft 481 kts 263°
2026-05-07 16:42 50.17038 26.83404 33955 ft 480 kts 263°
2026-05-07 16:42 50.16400 26.73049 33959 ft 480 kts 263°
2026-05-07 16:43 50.15783 26.62670 33957 ft 480 kts 264°
2026-05-07 16:43 50.15165 26.52293 33964 ft 480 kts 263°
2026-05-07 16:44 50.14542 26.42014 33958 ft 480 kts 263°
2026-05-07 16:44 50.13904 26.31662 33962 ft 479 kts 263°
2026-05-07 16:45 50.13257 26.21326 33963 ft 479 kts 263°
2026-05-07 16:45 50.12602 26.10983 33960 ft 479 kts 263°
2026-05-07 16:46 50.11936 26.00643 33981 ft 479 kts 263°
2026-05-07 16:46 50.11275 25.90627 33965 ft 478 kts 263°
2026-05-07 16:47 50.10586 25.80334 33961 ft 478 kts 262°
2026-05-07 16:47 50.09891 25.70060 33958 ft 477 kts 262°
2026-05-07 16:48 50.09187 25.59778 33954 ft 476 kts 262°
2026-05-07 16:48 50.08476 25.49544 33963 ft 475 kts 262°
2026-05-07 16:49 50.07762 25.39385 33963 ft 475 kts 262°
2026-05-07 16:49 50.07034 25.29149 33960 ft 476 kts 262°
2026-05-07 16:50 50.06295 25.18904 33961 ft 476 kts 262°
2026-05-07 16:50 50.05546 25.08638 33959 ft 477 kts 262°
2026-05-07 16:51 50.04807 24.98634 33953 ft 477 kts 262°
2026-05-07 16:51 50.04040 24.88374 33951 ft 478 kts 262°
2026-05-07 16:52 50.03260 24.78084 33968 ft 480 kts 262°
2026-05-07 16:52 50.02469 24.67753 33963 ft 481 kts 262°
2026-05-07 16:53 50.01668 24.57413 33963 ft 481 kts 262°
2026-05-07 16:53 50.00858 24.47085 33962 ft 481 kts 262°
2026-05-07 16:54 50.00039 24.36753 33968 ft 481 kts 261°
2026-05-07 16:54 49.99213 24.26464 33962 ft 479 kts 261°
2026-05-07 16:55 49.98523 24.17953 33958 ft 478 kts 261°
2026-05-07 16:55 49.97685 24.07717 33970 ft 477 kts 261°
2026-05-07 16:56 49.96866 23.97835 33960 ft 476 kts 261°
2026-05-07 16:56 49.95584 23.82556 33977 ft 475 kts 260°
2026-05-07 16:57 49.94718 23.72380 33969 ft 475 kts 260°
2026-05-07 16:57 49.93846 23.62232 33959 ft 474 kts 260°
2026-05-07 16:58 49.92966 23.52095 33957 ft 474 kts 260°
2026-05-07 16:58 49.92076 23.41961 33957 ft 474 kts 260°
2026-05-07 16:59 49.91179 23.31834 33996 ft 474 kts 259°
2026-05-07 16:59 49.90279 23.21775 33960 ft 474 kts 259°
2026-05-07 17:00 49.89850 23.11570 33947 ft 478 kts 269°
2026-05-07 17:00 49.90183 23.01265 33954 ft 478 kts 269°
2026-05-07 17:01 49.90485 22.91279 33955 ft 477 kts 269°
2026-05-07 17:01 49.90761 22.80980 33955 ft 478 kts 269°
2026-05-07 17:02 49.91017 22.70675 33953 ft 478 kts 269°
2026-05-07 17:02 49.91261 22.60367 33956 ft 478 kts 268°
2026-05-07 17:03 49.91498 22.50054 33956 ft 478 kts 268°
2026-05-07 17:03 49.91727 22.39722 33961 ft 478 kts 268°
2026-05-07 17:04 49.91945 22.29484 33966 ft 478 kts 268°
2026-05-07 17:04 49.92156 22.19189 33966 ft 476 kts 268°
2026-05-07 17:05 49.92357 22.08923 33967 ft 475 kts 268°
2026-05-07 17:05 49.92542 21.98987 33967 ft 474 kts 268°
2026-05-07 17:06 49.92723 21.88751 33975 ft 475 kts 268°
2026-05-07 17:06 49.92896 21.78502 33984 ft 475 kts 267°
2026-05-07 17:07 49.93060 21.68258 33970 ft 475 kts 267°
2026-05-07 17:07 49.93215 21.58025 33973 ft 474 kts 267°
2026-05-07 17:08 49.93360 21.47801 33975 ft 474 kts 267°
2026-05-07 17:08 49.93497 21.37577 34009 ft 474 kts 266°
2026-05-07 17:09 49.93626 21.27357 33979 ft 473 kts 266°
2026-05-07 17:09 49.93744 21.17174 33970 ft 472 kts 266°
2026-05-07 17:10 49.93854 21.06992 33979 ft 471 kts 266°
2026-05-07 17:10 49.93950 20.97134 33983 ft 471 kts 266°
2026-05-07 17:11 49.94042 20.86949 34003 ft 472 kts 265°
2026-05-07 17:11 49.94125 20.76746 33987 ft 472 kts 265°
2026-05-07 17:12 49.94199 20.66553 33978 ft 473 kts 265°
2026-05-07 17:12 49.94265 20.56334 33979 ft 474 kts 265°
2026-05-07 17:13 49.94320 20.46108 33980 ft 474 kts 265°
2026-05-07 17:13 49.94367 20.35874 33979 ft 475 kts 265°
2026-05-07 17:14 49.94406 20.25620 33967 ft 475 kts 265°
2026-05-07 17:14 49.94436 20.15363 33963 ft 475 kts 265°
2026-05-07 17:15 49.94456 20.05178 33956 ft 475 kts 265°
2026-05-07 17:15 49.94468 19.95243 33954 ft 475 kts 265°
2026-05-07 17:16 49.94472 19.85005 33957 ft 473 kts 265°
2026-05-07 17:16 49.94467 19.74824 33945 ft 470 kts 264°
2026-05-07 17:17 49.94449 19.64716 33963 ft 468 kts 264°
2026-05-07 17:17 49.94425 19.54597 33972 ft 468 kts 264°
2026-05-07 17:18 49.94392 19.44483 34005 ft 468 kts 264°
2026-05-07 17:18 49.94351 19.34389 33970 ft 467 kts 264°
2026-05-07 17:19 49.94302 19.24325 33961 ft 466 kts 263°
2026-05-07 17:19 49.94243 19.14273 33957 ft 465 kts 263°
2026-05-07 17:20 49.94176 19.04241 33954 ft 465 kts 263°
2026-05-07 17:20 49.94102 18.94523 33974 ft 466 kts 263°
2026-05-07 17:21 49.94015 18.84395 33966 ft 471 kts 263°
2026-05-07 17:21 49.93920 18.74200 33964 ft 474 kts 263°
2026-05-07 17:22 49.93818 18.64018 33949 ft 475 kts 263°
2026-05-07 17:22 49.93743 18.53753 33946 ft 477 kts 265°
2026-05-07 17:23 49.93999 18.43443 33962 ft 480 kts 267°
2026-05-07 17:23 49.94355 18.33045 33956 ft 483 kts 267°
2026-05-07 17:24 49.94680 18.22612 33964 ft 484 kts 267°
2026-05-07 17:24 49.94967 18.12150 33962 ft 485 kts 266°
2026-05-07 17:25 49.95234 18.01700 33952 ft 485 kts 266°
2026-05-07 17:25 49.95483 17.91577 33954 ft 484 kts 266°
2026-05-07 17:26 49.95730 17.81137 33957 ft 483 kts 266°
2026-05-07 17:26 49.95969 17.70683 33952 ft 483 kts 266°
2026-05-07 17:27 49.96199 17.60257 33955 ft 483 kts 266°
2026-05-07 17:27 49.96418 17.49832 33969 ft 484 kts 266°
2026-05-07 17:28 49.96629 17.39433 33961 ft 485 kts 266°
2026-05-07 17:28 49.96832 17.28959 33956 ft 485 kts 266°
2026-05-07 17:29 49.97025 17.18487 33955 ft 486 kts 266°
2026-05-07 17:29 49.97208 17.08005 33956 ft 486 kts 266°
2026-05-07 17:30 49.97378 16.97770 33963 ft 490 kts 266°
2026-05-07 17:30 49.97544 16.87198 33964 ft 491 kts 266°
2026-05-07 17:31 49.97702 16.76562 33970 ft 492 kts 266°
2026-05-07 17:31 49.97851 16.65925 33972 ft 493 kts 266°
2026-05-07 17:32 49.97989 16.55264 33963 ft 494 kts 266°
2026-05-07 17:32 49.98097 16.46395 33967 ft 495 kts 266°
2026-05-07 17:33 49.98239 16.33888 33967 ft 495 kts 266°
2026-05-07 17:33 49.98348 16.23192 33959 ft 496 kts 266°
2026-05-07 17:34 49.98448 16.12485 33989 ft 495 kts 267°
2026-05-07 17:34 49.98538 16.01814 33959 ft 495 kts 267°
2026-05-07 17:35 49.98616 15.91542 33973 ft 494 kts 267°
2026-05-07 17:35 49.98686 15.80887 33972 ft 493 kts 267°
2026-05-07 17:36 49.98747 15.70229 33974 ft 493 kts 267°
2026-05-07 17:36 49.98797 15.59578 33977 ft 493 kts 267°
2026-05-07 17:37 49.98837 15.48908 33956 ft 494 kts 267°
2026-05-07 17:37 49.98869 15.38227 33956 ft 494 kts 267°
2026-05-07 17:38 49.98891 15.27541 33963 ft 495 kts 267°
2026-05-07 17:38 49.98902 15.16850 33974 ft 495 kts 267°
2026-05-07 17:39 49.98904 15.07870 33972 ft 496 kts 267°
2026-05-07 17:39 49.98899 14.97474 33975 ft 497 kts 267°
2026-05-07 17:40 49.98884 14.86728 33989 ft 497 kts 267°
2026-05-07 17:40 49.98858 14.75980 33990 ft 497 kts 267°
2026-05-07 17:41 49.98822 14.65309 34005 ft 497 kts 268°
2026-05-07 17:41 49.98776 14.54590 33995 ft 495 kts 268°
2026-05-07 17:42 49.98722 14.43912 33999 ft 494 kts 268°
2026-05-07 17:42 49.98657 14.33247 33999 ft 493 kts 268°
2026-05-07 17:43 49.98582 14.22606 34015 ft 492 kts 268°
2026-05-07 17:43 49.98498 14.11994 33996 ft 492 kts 268°
2026-05-07 17:44 49.98404 14.01378 34007 ft 491 kts 268°
2026-05-07 17:44 49.98305 13.91114 34019 ft 491 kts 268°
2026-05-07 17:45 49.98192 13.80511 34016 ft 491 kts 268°
2026-05-07 17:45 49.98069 13.69883 34022 ft 492 kts 268°
2026-05-07 17:46 49.97937 13.59238 34020 ft 493 kts 268°
2026-05-07 17:46 49.97795 13.48591 34024 ft 493 kts 268°
2026-05-07 17:47 49.97643 13.38009 33935 ft 489 kts 268°
2026-05-07 17:47 49.97564 13.32682 33220 ft 484 kts 268°
2026-05-07 17:47 49.97484 13.27484 32373 ft 479 kts 268°
2026-05-07 17:48 49.97402 13.22339 31608 ft 474 kts 268°
2026-05-07 17:48 49.97319 13.17264 30913 ft 468 kts 269°
2026-05-07 17:48 49.97235 13.12230 30258 ft 462 kts 269°
2026-05-07 17:48 49.97150 13.07320 29504 ft 458 kts 269°
2026-05-07 17:49 49.97064 13.02409 28761 ft 452 kts 269°
2026-05-07 17:49 49.96981 12.97807 28102 ft 447 kts 269°
2026-05-07 17:49 49.96893 12.93019 27456 ft 441 kts 269°
2026-05-07 17:49 49.96794 12.88271 26753 ft 437 kts 268°
2026-05-07 17:50 49.96518 12.83606 26069 ft 433 kts 264°
2026-05-07 17:50 49.96133 12.78975 25403 ft 430 kts 264°
2026-05-07 17:50 49.95722 12.74410 24786 ft 425 kts 263°
2026-05-07 17:50 49.95311 12.69885 24215 ft 420 kts 264°
2026-05-07 17:51 49.94913 12.65420 23694 ft 414 kts 264°
2026-05-07 17:51 49.94529 12.61022 23117 ft 408 kts 264°
2026-05-07 17:51 49.94155 12.56664 22441 ft 404 kts 264°
2026-05-07 17:51 49.93789 12.52357 21740 ft 402 kts 264°
2026-05-07 17:52 49.93424 12.48061 21082 ft 399 kts 263°
2026-05-07 17:52 49.93058 12.43806 20464 ft 394 kts 262°
2026-05-07 17:52 49.92722 12.41203 20040 ft 394 kts 256°
2026-05-07 17:52 49.91767 12.37220 19392 ft 394 kts 245°
2026-05-07 17:53 49.90355 12.33659 18827 ft 393 kts 234°
2026-05-07 17:53 49.88541 12.30480 18147 ft 394 kts 227°
2026-05-07 17:53 49.86550 12.27489 17506 ft 392 kts 225°
2026-05-07 17:53 49.84594 12.24666 16948 ft 388 kts 225°
2026-05-07 17:54 49.82604 12.21865 16397 ft 384 kts 222°
2026-05-07 17:54 49.80542 12.19263 15826 ft 381 kts 220°
2026-05-07 17:54 49.78462 12.16746 15267 ft 378 kts 219°
2026-05-07 17:54 49.76388 12.14275 14795 ft 372 kts 220°
2026-05-07 17:55 49.74337 12.11868 14338 ft 367 kts 219°
2026-05-07 17:55 49.72308 12.09500 13822 ft 364 kts 219°
2026-05-07 17:55 49.70289 12.07153 13224 ft 362 kts 219°
2026-05-07 17:55 49.68284 12.04825 12617 ft 360 kts 219°
2026-05-07 17:56 49.66293 12.02511 12065 ft 357 kts 219°
2026-05-07 17:56 49.64319 12.00215 11482 ft 351 kts 219°
2026-05-07 17:56 49.62521 11.98125 10657 ft 333 kts 219°
2026-05-07 17:56 49.60713 11.96025 9789 ft 319 kts 219°
2026-05-07 17:57 49.58975 11.94002 8871 ft 307 kts 219°
2026-05-07 17:57 49.57931 11.92593 8233 ft 297 kts 231°
2026-05-07 17:57 49.56666 11.88989 7070 ft 279 kts 251°
2026-05-07 17:57 49.56052 11.86202 6406 ft 267 kts 254°
2026-05-07 17:58 49.55474 11.83433 6195 ft 275 kts 254°
2026-05-07 17:58 49.54898 11.80649 6026 ft 271 kts 254°
2026-05-07 17:58 49.54336 11.77945 6010 ft 257 kts 254°
2026-05-07 17:58 49.53802 11.75389 6109 ft 249 kts 253°
2026-05-07 17:59 49.53075 11.72973 6009 ft 248 kts 245°
2026-05-07 17:59 49.52268 11.70636 5966 ft 248 kts 239°
2026-05-07 17:59 49.50994 11.68819 5998 ft 256 kts 214°
2026-05-07 17:59 49.49440 11.67464 5920 ft 258 kts 213°
2026-05-07 18:00 49.47900 11.66093 5513 ft 259 kts 214°
2026-05-07 18:00 49.46343 11.64686 5066 ft 254 kts 215°
2026-05-07 18:00 49.45130 11.62870 4579 ft 243 kts 243°
2026-05-07 18:00 49.44674 11.60466 4123 ft 224 kts 268°
2026-05-07 18:01 49.44757 11.58220 3991 ft 198 kts 279°
2026-05-07 18:01 49.44986 11.56019 4044 ft 225 kts 281°
2026-05-07 18:01 49.45227 11.53795 4054 ft 203 kts 281°
2026-05-07 18:01 49.45440 11.51784 4042 ft 180 kts 280°
2026-05-07 18:02 49.45816 11.48182 4070 ft 167 kts 280°
2026-05-07 18:02 49.45997 11.46429 4076 ft 164 kts 280°
2026-05-07 18:02 49.46174 11.44698 4087 ft 162 kts 280°
2026-05-07 18:03 49.46348 11.42991 4080 ft 165 kts 280°
2026-05-07 18:03 49.46527 11.41241 4081 ft 166 kts 280°
2026-05-07 18:03 49.46705 11.39495 4070 ft 165 kts 280°
2026-05-07 18:03 49.46880 11.37768 4067 ft 162 kts 280°
2026-05-07 18:04 49.47054 11.36051 4074 ft 163 kts 280°
2026-05-07 18:04 49.47228 11.34321 4079 ft 165 kts 280°
2026-05-07 18:04 49.47404 11.32579 4083 ft 165 kts 280°
2026-05-07 18:04 49.47579 11.30840 4083 ft 165 kts 280°
2026-05-07 18:05 49.47762 11.29105 4076 ft 165 kts 280°
2026-05-07 18:05 49.47943 11.27352 4078 ft 166 kts 280°
2026-05-07 18:05 49.48119 11.25587 4080 ft 168 kts 280°
2026-05-07 18:05 49.48295 11.23798 4067 ft 169 kts 280°
2026-05-07 18:06 49.48471 11.22016 4049 ft 168 kts 280°
2026-05-07 18:06 49.48646 11.20234 3972 ft 169 kts 280°
2026-05-07 18:06 49.48823 11.18433 3655 ft 171 kts 280°
2026-05-07 18:06 49.49000 11.16632 3052 ft 166 kts 281°
2026-05-07 18:07 49.49167 11.14939 2523 ft 154 kts 281°
2026-05-07 18:07 49.49322 11.13370 1963 ft 148 kts 280°
2026-05-07 18:07 49.49465 11.11826 1456 ft 137 kts 277°
2026-05-07 18:07 49.49595 11.10411 1278 ft 137 kts 281°
2026-05-07 18:08 49.49731 11.09014 1054 ft 129 kts 275°
2026-05-07 18:08 49.49827 11.08170 1030 ft 19 kts 285°
2026-05-07 18:08 49.49841 11.07941 1038 ft 22 kts 278°
2026-05-07 18:08 49.49858 11.07703 1037 ft 16 kts 252°
2026-05-07 18:09 49.49781 11.07694 1037 ft 14 kts 159°
2026-05-07 18:09 49.49729 11.07729 1037 ft 0 kts 153°
2026-05-07 18:09 49.49709 11.07742 1037 ft 7 kts 158°
2026-05-07 18:10 49.49657 11.07812 1033 ft 14 kts 118°
2026-05-07 18:10 49.49631 11.07979 1034 ft 18 kts 110°
2026-05-07 18:10 49.49617 11.08102 1035 ft 0 kts 97°
2026-05-07 18:10 49.49614 11.08137 1033 ft 9 kts 101°
2026-05-07 18:11 49.49600 11.08291 1035 ft 20 kts 96°
2026-05-07 18:11 49.49596 11.08333 1036 ft 2 kts 102°
2026-05-07 18:11 49.49549 11.08359 1038 ft 0 kts 181°
2026-05-07 18:11 49.49539 11.08361 1038 ft 6 kts 170°
2026-05-07 18:12 49.49528 11.08368 1038 ft 1 kts 152°
2026-05-07 18:12 49.49522 11.08422 1039 ft 9 kts 66°
2026-05-07 18:12 49.49549 11.08451 1038 ft 0 kts 25°